Stations

Station Name Date Time Temperature Relative Humidity Precipitation Wind Speed Wind Direction Create Custom Report Daily Report Hourly Report
Aberdeen VT 2018-23-01 17:30
Bee Lake 2018-23-01 17:30 49.5 72.41 0.00 3.64 WNW
Brooksville 2018-23-01 17:30 49.6 64.00 0.00 6.15 WSW
Brooksville2 VT 2018-23-01 17:30 48.6 64.87 0.00
Brown Loam Exp Stn VT 2018-23-01 17:30 50.5 47.26 0.00
Clarksdale VT 2018-23-01 17:30
COOP Stoneville 2018-22-01 7:00 52.0 95 0.56
Hickory Flat VT 2018-23-01 17:30
Jackson Co 2018-23-01 17:30 58.6 36.72 0.00 0.20 NNW
Longwood VT 2018-23-01 17:30
Lyon 2018-23-01 17:30 46.7 77.73 0.00 2.31 WNW
Macon VT 2018-23-01 17:30
Mound Bayou 2018-23-01 17:30 48.4 63.00 0.00 4.01 NNW
Olive Branch VT 2018-23-01 17:30
Olive Branch2 VT 2018-23-01 17:30
Pontotoc AWS COOP 2018-23-01 17:30 45.0 59.08 0.00
Prairie 2018-23-01 17:30 47.6 55.96 0.00 5.18 WNW
Sidon 2018-23-01 17:30 48.5 72.55 0.00 3.04 NNE
Stockett Farm 2018-23-01 17:30 52.6 39.22 0.00 0.57 NW
Stoneville AWS 2018-23-01 17:15 50.9 62.48 0.00 2.08 NW
Stoneville SW 2018-23-01 17:30 49.7 76.26 0.00 3.46 N
Stoneville W 2018-23-01 17:30 49.5 71.53 0.00 3.71 N
Thighman 2018-23-01 17:30 48.8 76.99 0.00 5.11 NNW
Tribbett 2018-23-01 17:30 49.9 65.91 0.00 3.48 N
Verona 2018-23-01 17:30 47.5 59.92 0.00 5.74 NNW